Home > Weather > Newmarket > Past weeks

Flag for Canada Weather for the Past 2 Weeks in Newmarket, Ontario, Canada

Now
41 °F

Passing clouds.


Feels Like: 41 °F
Forecast: 40 / 61 °F
Wind: 2 mph from South

Location: Borden

Current Time: May 4, 2016 at 12:46:10 AM

Latest Report: May 4, 2016 at 12:00 AM


Visibility: 9 mi

Pressure: 29.76 "Hg

Humidity: 87%

Dew Point: 37 °F

Location of NewmarketLocation

Historic Weather in Newmarket — Graph

°F

Newmarket Temperature Yesterday

Maximum temperature yesterday: 61 °F (at 11:00 AM)
Minimum temperature yesterday: 34 °F (at 2:00 AM)
Average temperature yesterday: 49 °F

High & Low Weather Summary for the Past Weeks

 TemperatureHumidityPressure
High66 °F (Apr 21, 1:00 PM)100% (Apr 22, 1:00 AM)30.38 "Hg (Apr 22, 1:00 AM)
Low19 °F (Apr 27, 6:00 AM)19% (Apr 20, 6:00 PM)29.78 "Hg (Apr 22, 5:00 AM)
Average43 °F67%30.07 "Hg
* Reported Apr 18 11:00 PM — May 3 11:00 PM, Newmarket, Weather by CustomWeather, © 2016

Note: Actual official high and low records may vary slightly from our data, if they occured in-between our weather recording intervals... More about our weather records

Advertising

Newmarket Weather History for the Previous 24 Hours

Scroll right to see more
 ConditionsComfort  
Time TempWeatherWind HumidityBarometerVisibility
11:00 PM
Tue, May 3
45 °FClear.3 mph76%29.78 "Hg9 mi
10:00 PM48 °FClear.7 mph71%29.79 "Hg9 mi
9:00 PM50 °FSunny.8 mph71%29.78 "Hg9 mi
8:00 PM54 °FScattered clouds.9 mph63%29.78 "Hg9 mi
7:00 PM57 °FOvercast.9 mph59%29.79 "Hg9 mi
6:00 PM57 °FPartly sunny.8 mph59%29.79 "Hg9 mi
5:00 PM59 °FMostly cloudy.7 mph51%29.80 "Hg9 mi
4:00 PM59 °FOvercast.7 mph42%29.81 "Hg9 mi
3:00 PM61 °FMostly cloudy.9 mph39%29.82 "Hg9 mi
2:00 PM61 °FOvercast.2 mph36%29.83 "Hg9 mi
1:00 PM61 °FOvercast.No wind34%29.84 "Hg9 mi
12:00 PM59 °FScattered clouds.6 mph36%29.86 "Hg9 mi
11:00 AM61 °FPassing clouds.3 mph39%29.88 "Hg9 mi
10:00 AM59 °FSunny.2 mph51%29.89 "Hg9 mi
9:00 AM54 °FSunny.2 mph63%29.91 "Hg9 mi
8:00 AM46 °FSunny.5 mph87%29.92 "Hg9 mi
7:00 AM37 °FPassing clouds.No wind93%29.93 "Hg7 mi
6:00 AM37 °FOvercast.2 mph87%29.93 "Hg7 mi
5:00 AM34 °FPassing clouds.3 mph93%29.95 "Hg9 mi
4:00 AM34 °FPassing clouds.3 mph93%29.96 "Hg9 mi
3:00 AM36 °FClear.No wind87%29.97 "Hg8 mi
2:00 AM34 °FClear.2 mph93%29.97 "Hg6 mi
1:00 AM36 °FClear.2 mph87%29.98 "Hg9 mi
12:00 AM37 °FClear.No wind87%29.98 "Hg9 mi
Weather by CustomWeather, © 2016

See weather overviewHow to use our weather pages